Flag for United Kingdom Weather past 2 weeks in Oxford, England, United Kingdom

Now
73 °F

Scattered clouds.


Feels Like: 76 °F
Forecast: 57 / 73 °F
Wind: 9 mph from Northeast

Location: Benson

Current Time: Sep 18, 2014 at 3:13:47 PM

Latest Report: Sep 18, 2014 at 1:50 PM


Visibility: N/A

Pressure: 29.77 "Hg

Humidity: 61%

Dew point: 59 °F

Location of OxfordLocation

Historic Weather in Oxford — Graph

°F

Oxford temperature yesterday

Maximum temperature yesterday: 73 °F (at 2:50 PM)
Minimum temperature yesterday: 55 °F (at 12:50 AM)
Average temperature yesterday: 63 °F

Past Weeks' High & Low Weather Summary

 TemperatureHumidityPressure
High73 °F (Sep 16, 3:50 PM)100% (Sep 4, 4:24 AM)30.33 "Hg (Sep 4, 4:24 AM)
Low41 °F (Sep 8, 4:50 AM)38% (Sep 8, 2:50 PM)29.77 "Hg (Sep 18, 1:50 PM)
Average60 °F79%30.08 "Hg
* Reported Sep 3 1:50 PM — Sep 18 1:50 PM, Oxford, Weather by CustomWeather, © 2014

Note: Actual official high and low records may vary slightly from our data, if they occured in-between our weather recording intervals... More about our weather records

Advertising

Oxford weather history for previous 24 hours

 ConditionsComfort  
Time TempWeatherWind HumidityBarometerVisibility
1:50 PM
Sep 18
73 °FScattered clouds.9 mph61%29.77 "HgN/A
12:50 PM73 °FHaze.8 mph65%29.80 "Hg4 mi
11:50 AM70 °FBroken clouds.9 mph69%29.80 "Hg4 mi
10:50 AM66 °FPartly sunny.10 mph78%29.80 "Hg3 mi
9:50 AM63 °FScattered clouds.9 mph88%29.83 "Hg2 mi
9:30 AM63 °FPartly sunny.10 mph88%29.83 "Hg2 mi
8:50 AM59 °FLow clouds.12 mph94%29.83 "Hg1 mi
7:50 AM59 °FFog.10 mph94%29.80 "Hg1 mi
6:50 AM59 °FFog.12 mph94%29.80 "Hg1 mi
5:50 AM59 °FLow clouds.12 mph94%29.80 "Hg2 mi
4:50 AM59 °FLow clouds.9 mph94%29.80 "Hg2 mi
3:50 AM59 °FLow clouds.12 mph94%29.80 "Hg2 mi
2:50 AM59 °FPassing clouds.8 mph94%29.83 "Hg2 mi
1:50 AM61 °FPassing clouds.8 mph94%29.83 "Hg1 mi
12:50 AM61 °FPassing clouds.7 mph94%29.83 "Hg1 mi
11:50 PM
Sep 17
61 °FPassing clouds.7 mph94%29.86 "Hg2 mi
10:50 PM61 °FPassing clouds.7 mph94%29.86 "Hg2 mi
9:50 PM61 °FPassing clouds.7 mph94%29.86 "Hg2 mi
8:50 PM63 °FPassing clouds.7 mph88%29.86 "Hg3 mi
7:50 PM63 °FPartly sunny.5 mph83%29.86 "Hg4 mi
7:21 PM64 °FPartly sunny.7 mph78%29.83 "Hg4 mi
6:50 PM66 °FSunny.7 mph73%29.83 "Hg10 mi
5:50 PM68 °FSunny.9 mph69%29.83 "Hg10 mi
4:50 PM70 °FSunny.10 mph64%29.83 "Hg10 mi
3:50 PM70 °FPartly sunny.10 mph64%29.83 "HgN/A
Weather by CustomWeather, © 2014

See weather overviewHow to use our weather pages